Погода в Лидо-ди-Камайоре

Италия     43˚54′22″N   10˚13′36″E
темп.,
°C
ветер,
м/с
пор.,
м/с
влажн.,
%
обл.,
%
осадки,
мм/ч
давл.,
гПа
погр.,
м
16 января, сб
сб1601:00св336849 0.0 1018113
04:00св33720 0.0 101991
07:00−1˚св33680 0.0 102085
10:00+2˚св22560 0.0 1021158
13:00+5˚ююз01460 0.0 1020871
16:00+4˚юз12584 0.0 1020530
19:00+1˚с12683 0.0 1020197
22:00+1˚св127067 0.0 102152
17 января, вс
вс1701:00+1˚св117283 0.0 101948
04:00+2˚в1176100 0.0 1017156
07:00+1˚всв2294100 0.2 1015112
10:00+3˚в128195 0.0 1015226
13:00+4˚ююв018196 0.1 1015326
16:00+5˚ююз118095 0.1 1014258
19:00+4˚ссв118489 0.1 101679
22:00+2˚ссв118096 0.0 101786
18 января, пн
пн1801:00+2˚св227396 0.0 101963
04:00+1˚св226727 0.0 102053
07:00св226614 0.0 102143
10:00+4˚с11560 0.0 1023133
13:00+6˚юз11590 0.0 1024515
16:00+5˚ююз11700 0.0 1023197
19:00+2˚св11810 0.0 102560
22:00+1˚св22772 0.0 102650
19 января, вт
вт1901:00+1˚св226822 0.0 102747
04:00+1˚св227016 0.0 102645
07:00+1˚св22768 0.0 102746
10:00+4˚в11701 0.0 1028128
13:00+6˚ююз116530 0.0 1027423
16:00+5˚ююв127682 0.0 1025203
19:00+4˚юв129191 0.4 1026161
22:00+4˚вюв2291100 0.3 1025114
20 января, ср
ср2001:00+4˚вюв1394100 1.3 1025151
04:00+5˚ююв2398100 2.6 1023153
07:00+4˚юв2398100 6.1 1023133
10:00+5˚юв2497100 3.1 1022226
13:00+6˚вюв2393100 4.1 1022180
16:00+7˚юв1392100 0.6 1020228
19:00+7˚вюв1291100 1.2 1019111
22:00+7˚вюв2494100 0.8 1018165